Probability
23 22 20 21 23 26 28 24 20 19 17 14 11 7 4 2 2 2 4 5 4 4 3 1 1 2 2 2 1 1 2 3 5 6 6 6 6 7 7 7 7 5 4
29 26 21 20 23 27 28 24 19 18 16 14 11 8 6 4 2 2 4 6 6 6 5 3 2 2 2 2 3 4 4 4 4 5 5 5 5 5 6 8 9 8 7
30 28 22 18 21 26 27 24 22 20 17 12 9 6 5 5 3 4 6 8 8 7 6 5 4 3 3 4 6 7 6 5 5 5 6 5 4 4 5 6 8 10 11
25 26 24 21 21 24 25 27 28 27 21 14 8 5 4 4 4 5 8 9 8 7 6 6 7 7 5 6 8 8 7 6 6 7 7 7 7 5 4 5 6 9 11
23 25 26 25 24 24 26 29 34 33 26 19 12 9 8 8 6 6 8 10 10 9 8 8 8 8 7 7 7 7 6 6 7 7 7 8 9 7 5 5 6 8 9
25 27 29 28 25 25 27 31 38 37 30 23 18 16 15 14 11 8 9 11 12 11 10 9 9 8 7 6 7 7 6 6 7 7 7 9 9 9 7 6 5 6 7
22 26 31 30 27 26 28 36 44 43 33 26 24 23 21 19 14 10 9 10 11 11 11 11 12 11 8 7 8 9 8 7 7 7 8 9 9 9 9 7 4 3 4
15 23 30 31 29 27 29 38 48 47 37 29 28 27 24 20 16 13 11 10 10 11 11 14 16 14 10 9 10 10 10 10 9 9 9 9 10 10 9 7 6 4 2
11 18 27 28 27 27 29 36 45 46 37 29 27 26 25 23 20 16 14 14 14 13 13 16 17 15 13 11 11 12 13 13 12 12 12 12 12 10 9 8 10 10 7
12 16 21 22 22 25 28 33 40 41 35 28 24 24 25 26 24 20 18 19 20 18 16 17 18 17 16 14 14 15 16 15 14 13 14 15 15 13 11 11 14 15 13
17 16 17 18 18 21 26 30 35 36 31 27 24 23 26 27 25 22 20 22 23 24 22 20 19 20 19 18 18 19 18 17 16 14 13 15 17 16 15 15 16 16 15
23 21 19 18 17 19 23 27 30 30 28 26 25 26 28 28 27 24 22 23 26 27 24 21 20 21 20 20 20 21 21 20 20 18 17 17 17 17 17 17 18 17 16
26 25 23 21 20 22 26 27 26 25 25 27 28 29 30 30 29 28 26 26 28 28 24 21 21 21 22 22 22 22 22 22 21 21 21 21 19 19 20 19 19 20 19
27 27 26 25 25 28 32 31 27 25 27 30 31 31 32 31 31 31 30 29 29 27 25 24 24 24 24 25 24 23 23 23 22 22 24 25 23 22 22 23 23 24 25
26 28 29 30 31 33 36 34 30 29 33 35 35 34 35 34 33 32 30 29 28 27 27 27 27 26 24 22 22 23 24 26 26 26 26 26 24 23 21 21 23 25 27
26 29 32 34 36 36 36 35 33 35 38 39 38 39 39 37 34 31 30 29 29 28 28 27 25 23 19 17 16 18 22 26 28 27 26 24 23 22 18 15 16 18 20
29 30 31 32 33 34 35 35 37 40 42 41 40 40 39 36 32 29 28 30 30 28 25 23 21 17 14 13 12 11 16 23 26 27 25 22 22 21 18 15 13 13 13
30 29 28 26 26 29 32 36 38 40 42 41 39 37 33 30 29 27 28 30 31 28 25 23 20 16 13 11 9 8 12 20 26 27 25 21 18 16 16 16 16 15 15
25 24 22 21 21 23 27 31 32 34 36 35 32 30 28 26 26 27 28 29 30 28 27 24 22 18 14 11 8 8 12 19 24 25 22 18 13 9 9 11 15 18 19
18 18 17 18 19 19 20 23 25 27 29 28 26 25 25 24 25 26 28 28 26 25 24 24 23 21 17 13 9 8 13 18 19 19 17 13 9 5 4 6 10 15 18
14 16 18 19 19 18 17 20 23 26 27 26 25 25 25 24 24 25 27 26 24 22 22 23 22 21 18 14 9 8 12 16 16 15 13 11 6 2 2 3 7 10 12
13 16 20 23 22 19 18 20 24 27 26 25 26 27 26 23 22 23 24 24 22 21 20 20 20 21 18 13 9 6 7 11 12 13 12 9 4 1 0 1 3 5 5
15 16 19 23 24 22 21 21 24 25 24 23 24 26 26 24 22 22 21 21 20 18 17 17 19 19 16 12 9 6 3 4 6 9 9 5 2 0 0 0 1 2 3
15 16 17 21 24 25 25 23 23 23 24 23 23 24 24 23 22 20 19 18 17 15 15 16 18 18 15 12 9 6 4 3 3 4 4 3 1 1 1 2 2 3 4
14 15 18 21 24 26 27 26 24 24 24 24 22 21 20 17 15 15 14 14 13 12 13 15 16 14 12 9 7 6 5 4 3 3 4 3 2 3 4 6 6 8 8
14 15 19 22 24 26 27 27 27 25 23 22 20 19 17 12 10 10 9 8 9 8 10 12 13 12 8 5 4 4 4 4 4 4 4 4 3 5 6 7 10 12 13
Wind_Speed
11 10 9 9 8 7 5 5 4 3 2 1 2 2 1 2 2 2 3 3 3 2 2 2 2 1 2 2 2 2 2 1 1 1 1 1 2 3 3 3 3 4 4
11 10 9 9 8 7 6 5 4 4 3 2 1 1 2 2 2 2 2 3 3 2 2 3 2 2 2 2 2 2 1 1 1 1 1 0 0 1 2 3 3 3 2
13 12 10 9 9 8 7 5 5 4 4 3 2 1 1 1 2 2 2 2 2 2 2 3 2 2 2 2 2 2 2 1 1 1 2 1 1 0 1 2 3 3 3
12 11 10 9 9 8 8 6 5 4 4 3 2 3 2 2 2 2 2 2 2 2 2 2 2 2 1 1 2 2 1 1 1 1 1 1 1 1 1 1 1 3 3
11 10 9 8 7 8 8 7 6 5 4 3 3 2 1 2 2 2 3 2 2 2 2 2 2 2 1 1 1 1 1 1 1 1 1 1 1 2 1 1 1 1 2
9 10 9 8 6 7 8 8 7 6 5 4 3 3 2 2 2 2 3 3 2 2 2 2 2 1 1 1 1 1 0 1 1 1 1 1 1 1 2 2 2 2 2
8 9 9 8 7 6 6 7 8 7 6 5 4 3 2 2 2 2 2 3 2 2 2 2 2 2 2 1 1 1 1 1 1 1 2 1 1 1 1 2 2 2 2
6 8 9 8 7 6 6 7 7 6 6 5 5 4 3 3 2 2 2 1 1 2 2 3 2 2 2 2 1 1 2 1 1 2 2 2 2 1 1 2 2 2 2
4 6 8 8 7 7 6 7 7 6 6 5 4 4 3 3 2 2 2 2 1 2 2 3 3 2 2 2 2 1 2 2 2 2 2 2 2 2 2 2 2 2 2
5 6 7 7 6 6 6 6 7 7 6 5 4 4 4 3 2 2 2 2 1 1 1 1 2 2 2 2 2 2 2 2 2 2 2 2 2 2 2 2 2 2 2
4 4 6 6 6 6 5 4 5 6 5 5 4 3 4 4 3 3 2 2 2 2 2 2 2 2 2 2 2 3 3 3 3 2 2 2 2 2 2 2 2 2 2
4 3 4 5 5 5 5 4 4 5 4 4 4 3 3 3 3 3 2 2 2 2 1 2 2 2 2 2 3 3 3 3 3 3 3 3 2 3 3 3 2 2 2
6 5 5 4 3 3 4 4 4 4 4 4 4 3 3 3 3 2 2 2 2 2 2 2 2 2 2 2 3 3 3 3 3 3 3 3 2 3 2 2 3 3 3
5 5 4 3 3 2 3 4 3 3 3 4 4 3 3 3 3 2 2 2 2 2 1 2 2 2 2 2 2 2 3 2 2 2 2 1 2 2 3 2 3 3 3
5 4 3 3 3 3 3 2 2 2 2 3 3 3 2 2 2 2 2 2 1 2 1 2 2 2 2 2 2 2 3 2 2 2 1 1 1 1 2 2 2 2 2
4 3 3 2 3 2 2 1 1 2 2 2 2 2 2 2 2 1 1 1 1 1 1 1 1 1 2 2 2 2 2 2 2 2 2 2 3 2 2 2 2 2 3
3 3 3 2 2 2 2 1 1 1 2 2 2 2 2 2 2 1 1 1 1 1 0 1 0 1 1 2 3 2 2 3 2 2 2 3 2 1 1 2 4 4 4
4 4 3 3 2 2 2 1 1 1 2 2 2 2 2 1 1 1 1 1 1 1 1 0 0 0 1 3 3 3 3 3 2 2 2 2 1 2 2 3 3 3 3
3 3 2 2 2 2 2 2 1 1 1 2 2 1 1 1 1 1 1 1 0 0 1 1 0 0 1 2 3 3 3 2 3 2 1 1 0 3 3 3 3 3 3
3 2 2 2 2 2 2 2 1 1 0 1 1 1 1 1 1 0 0 1 1 0 0 1 1 1 0 1 2 2 3 2 2 1 0 1 1 2 2 2 3 4 4
3 3 3 3 3 2 2 1 1 1 0 0 1 1 1 1 2 1 1 0 1 1 1 1 1 1 1 1 1 1 2 3 2 2 1 0 1 1 2 3 3 5 5
2 3 3 2 2 2 1 1 0 0 0 0 0 1 1 2 1 1 1 1 1 2 2 2 2 1 1 1 1 2 2 3 3 2 1 1 2 2 3 3 4 6 6
2 2 2 2 2 1 1 1 1 1 0 0 1 1 2 1 2 2 2 2 2 2 1 1 1 0 1 1 2 2 3 3 2 2 3 3 3 4 4 5 6 5 3
2 2 2 2 2 1 1 1 1 1 0 1 1 1 2 2 2 1 1 1 1 1 1 1 0 0 1 1 2 2 2 2 2 2 3 3 3 4 4 4 3 3 3
1 1 1 1 1 1 1 1 1 0 1 1 2 2 2 2 2 2 1 1 1 1 1 0 0 0 0 1 1 1 2 2 3 3 2 2 2 2 2 2 2 2 2
0 1 0 0 0 1 1 1 0 0 1 1 1 1 2 2 2 3 2 2 2 3 4 2 1 1 1 1 0 2 3 4 3 2 2 2 2 2 3 3 2 2 2
Wind_Direction
148 143 145 144 143 140 142 144 140 130 134 132 142 148 137 134 124 130 133 134 134 133 132 119 128 129 116 121 122 124 139 154 150 113 102 180 188 185 188 200 203 193 187
150 151 154 153 154 151 154 157 148 147 153 146 147 150 150 143 138 122 123 131 133 141 149 125 131 122 123 133 133 123 124 158 167 160 166 197 206 188 205 186 196 193 183
156 158 163 165 164 161 160 159 155 155 165 157 152 149 135 124 111 118 124 127 125 121 104 121 121 113 126 151 162 169 189 185 220 203 184 180 202 210 234 206 195 182 182
156 159 164 167 167 162 158 154 152 152 157 158 161 169 155 140 134 134 129 129 115 110 113 123 135 140 141 148 178 156 193 204 234 220 221 218 172 193 226 244 202 191 184
153 156 157 161 166 162 157 155 147 147 150 160 162 169 161 149 133 134 133 133 132 138 135 132 141 153 157 138 114 102 168 222 245 248 226 215 209 223 205 233 243 221 203
148 149 153 154 158 157 159 159 149 152 157 163 165 173 171 141 138 144 143 153 154 162 157 152 152 151 157 154 149 134 161 278 284 290 276 245 219 232 225 221 235 239 232
147 150 151 151 153 155 156 150 146 155 164 172 176 178 182 181 173 174 171 166 163 166 164 160 157 158 168 174 155 167 213 247 275 287 284 284 266 253 245 218 244 259 255
139 146 148 149 153 157 150 148 147 158 168 176 180 179 188 195 186 184 195 172 174 164 149 163 166 173 189 189 176 201 217 227 248 267 277 281 284 278 258 245 243 263 267
125 144 142 148 155 157 154 153 150 159 167 171 170 174 184 195 184 188 195 197 182 178 174 174 168 178 193 208 211 212 231 231 233 247 264 259 269 263 255 255 242 240 256
148 155 139 142 147 154 148 150 156 161 165 169 180 177 182 187 173 183 197 196 184 177 197 184 176 186 196 215 220 225 232 235 239 234 260 274 267 266 257 252 256 253 246
125 137 137 142 142 138 136 139 146 155 163 170 177 178 174 180 182 185 188 183 181 189 199 199 200 200 205 220 224 230 228 232 242 247 251 259 270 280 282 277 268 264 245
100 112 117 128 130 136 132 134 158 159 162 165 168 171 167 174 180 189 195 191 193 198 194 205 214 219 218 226 233 235 240 238 242 242 245 253 258 271 279 281 278 277 267
78 75 72 86 106 126 127 141 153 156 164 162 161 158 171 181 186 194 195 193 195 205 211 209 219 228 239 245 247 244 248 251 253 249 245 250 249 268 266 277 285 279 276
80 77 70 59 64 94 119 133 144 154 155 151 157 160 176 182 188 186 189 197 200 213 226 237 237 235 241 251 256 252 253 259 266 267 264 271 268 276 279 269 279 283 289
81 72 72 64 62 68 86 117 136 144 152 154 164 170 174 173 176 181 190 194 201 212 220 236 249 252 251 263 268 253 239 243 251 254 257 270 289 289 272 276 290 288 283
99 93 78 81 87 85 78 90 128 130 141 158 167 159 160 162 175 187 179 190 209 215 233 253 268 269 285 348 355 304 271 256 248 247 246 239 249 246 230 242 263 267 271
92 91 89 83 95 111 97 73 109 129 139 144 145 144 152 160 172 192 183 198 206 165 218 289 301 321 351 356 359 335 276 271 265 268 269 272 286 254 255 239 246 258 263
80 74 81 91 83 74 81 74 66 109 130 135 132 136 152 156 147 164 176 179 175 175 187 333 20 298 350 2 351 330 267 266 261 261 271 286 336 322 316 286 264 253 256
80 82 82 80 71 60 51 53 53 67 112 129 134 137 147 145 145 166 174 152 143 172 162 136 116 345 347 356 344 328 285 275 275 273 303 303 329 326 323 298 290 285 274
91 91 87 77 73 59 60 45 38 51 85 138 131 126 154 170 175 203 212 192 167 184 195 173 162 193 314 350 1 344 294 289 293 289 15 39 343 318 331 302 299 290 291
88 79 75 70 57 53 78 56 11 328 338 355 138 140 180 191 168 165 169 163 199 215 233 236 191 186 188 272 322 338 319 313 301 292 293 301 321 308 303 292 288 288 295
90 83 73 64 54 43 72 83 345 330 318 284 221 175 191 230 178 162 180 199 219 227 232 239 233 201 180 201 286 277 281 298 304 309 319 318 306 295 287 281 288 297 300
72 75 67 66 71 63 44 26 359 338 309 213 228 208 183 194 191 197 204 207 212 227 226 226 232 109 95 60 357 313 301 303 299 321 328 312 298 300 289 274 281 288 283
67 73 52 36 15 29 51 37 5 317 228 199 230 218 169 172 177 181 180 199 212 227 231 223 233 181 86 49 12 341 319 312 300 312 306 288 272 278 285 290 282 267 269
49 62 54 30 5 3 8 40 6 318 262 235 224 224 194 183 184 184 197 192 157 167 192 314 48 94 88 293 272 296 315 322 320 312 288 287 295 293 288 290 290 278 270
13 26 346 290 4 21 12 18 315 207 238 249 241 229 201 192 190 174 148 71 102 143 141 148 163 122 117 140 359 330 326 328 342 333 310 319 320 316 309 306 305 303 304